ZDPS 2B (40902 NORAD) Tracking and Keplerian Element Data

This shows tracking and keplerian element data for the satellite.

Feedback or suggestion? Click here.




ElementValue
Catalog40902
NameZDPS 2B
Epoch Orbit39733
Epoch Day325.19923706
Epoch Year2022
RAAN331.5027
Inclination97.4676
Eccentricity0.0011705
Argument of Perigee138.6859
Mean Anonmoly290.6031
Mean Motion15.28311694
Decay Rate0.00013431
L11 40902U 15049D 22325.19923706 .00013431 00000+0 48846-3 0 9999
L22 40902 97.4676 331.5027 0011705 138.6859 290.6031 15.28311694397337



Live tracking and technical data element details for ZDPS 2B (NORAD 40902). ZDPS 2B can be tracked NOW for your location showing map with azimuth and elevation plus other details from your city location.







IsCatalogInMostPopularTable: catalog: 40902, numindb: 480
Update: records affected: 1



GetName: 40902 ZDPS 2B

Hit Count: updated at: Mon, 28 Nov 2022 05:56:34 GMT